QPF
0.03 0.01 0.01 0.00 0.00 0.00 0.00 0.00 0.00 0.01 0.00 0.00 0.00 0.00 0.02 0.01 0.00 0.00 0.00 0.00 0.00 0.00
0.01 0.01 0.02 0.00 0.00 0.01 0.01 0.01 0.01 0.00 0.01 0.00 0.01 0.00 0.00 0.02 0.00 0.00 0.00 0.00 0.00 0.00
0.01 0.02 0.00 0.00 0.02 0.02 0.03 0.00 0.00 0.00 0.00 0.00 0.00 0.00 0.00 0.00 0.00 0.00 0.00 0.00 0.02 0.03
0.01 0.01 0.02 0.03 0.02 0.02 0.01 0.00 0.00 0.00 0.00 0.00 0.00 0.00 0.00 0.00 0.00 0.00 0.00 0.00 0.00 0.01
0.09 0.04 0.01 0.02 0.07 0.03 0.00 0.01 0.02 0.02 0.00 0.00 0.00 0.00 0.01 0.00 0.00 0.00 0.00 0.00 0.00 0.00
0.05 0.05 0.00 0.00 0.01 0.02 0.00 0.00 0.02 0.01 0.00 0.00 0.00 0.00 0.00 0.00 0.00 0.00 0.00 0.00 0.00 0.00
0.05 0.06 0.04 0.01 0.00 0.00 0.00 0.00 0.00 0.00 0.00 0.00 0.00 0.00 0.00 0.00 0.00 0.00 0.00 0.00 0.00 0.03
0.03 0.03 0.05 0.05 0.04 0.02 0.01 0.01 0.00 0.00 0.00 0.00 0.00 0.00 0.00 0.00 0.00 0.00 0.00 0.00 0.00 0.02
0.01 0.06 0.03 0.02 0.03 0.08 0.05 0.04 0.04 0.01 0.00 0.00 0.00 0.00 0.00 0.00 0.00 0.00 0.00 0.00 0.01 0.00
0.08 0.07 0.02 0.01 0.04 0.09 0.12 0.05 0.04 0.01 0.00 0.00 0.00 0.00 0.00 0.00 0.00 0.00 0.00 0.00 0.01 0.00
0.20 0.14 0.10 0.03 0.02 0.03 0.06 0.08 0.03 0.04 0.04 0.02 0.00 0.00 0.00 0.00 0.00 0.00 0.00 0.00 0.00 0.00
0.06 0.13 0.20 0.19 0.14 0.09 0.18 0.21 0.13 0.07 0.10 0.12 0.01 0.08 0.15 0.22 0.05 0.01 0.01 0.00 0.00 0.00
0.01 0.00 0.04 0.16 0.27 0.26 0.26 0.27 0.27 0.20 0.16 0.18 0.03 0.10 0.16 0.13 0.09 0.07 0.03 0.00 0.00 0.00
0.00 0.00 0.00 0.00 0.04 0.16 0.22 0.22 0.21 0.25 0.19 0.19 0.23 0.17 0.19 0.23 0.28 0.20 0.11 0.02 0.03 0.04
MSLP
1016.27 1016.82 1016.94 1016.59 1016.56 1016.66 1016.79 1016.69 1016.49 1016.72 1016.65 1016.66 1016.75 1016.83 1016.91 1017.04 1017.13 1017.17 1017.18 1017.25 1017.47 1017.50
1015.51 1016.14 1016.60 1016.55 1016.45 1016.44 1016.48 1016.36 1016.43 1016.34 1016.79 1016.70 1016.60 1016.68 1017.06 1017.17 1016.97 1016.94 1017.08 1017.15 1017.22 1017.31
1014.87 1015.28 1015.69 1015.95 1016.22 1016.28 1016.47 1016.45 1016.44 1016.25 1016.22 1016.35 1016.53 1016.63 1016.95 1017.01 1016.84 1016.81 1016.84 1017.01 1017.08 1017.18
1014.96 1014.78 1015.22 1015.42 1015.44 1015.78 1016.11 1016.22 1016.36 1016.11 1016.12 1016.18 1016.35 1016.33 1016.65 1016.74 1016.64 1016.69 1016.66 1016.76 1016.89 1016.97
1014.77 1014.73 1014.44 1014.80 1015.04 1015.38 1015.83 1015.92 1015.95 1016.13 1016.02 1016.11 1016.16 1016.14 1016.33 1016.44 1016.29 1016.54 1016.66 1016.60 1016.76 1016.74
1014.67 1014.07 1014.29 1013.80 1014.08 1014.72 1015.22 1015.41 1015.49 1015.78 1015.68 1015.78 1015.85 1016.06 1016.05 1015.97 1015.99 1016.09 1016.29 1016.35 1016.56 1016.55
1014.24 1013.56 1013.76 1013.72 1013.38 1013.74 1014.19 1014.63 1015.01 1015.08 1015.12 1015.31 1015.44 1015.56 1015.74 1015.79 1015.70 1015.62 1015.86 1015.98 1016.00 1016.07
1013.74 1012.89 1012.97 1013.46 1013.33 1013.42 1013.84 1014.05 1014.26 1014.62 1014.75 1014.85 1015.01 1015.13 1015.21 1015.32 1015.40 1015.43 1015.59 1015.68 1015.63 1015.59
1013.33 1013.21 1012.60 1012.80 1012.87 1012.86 1012.89 1013.26 1013.51 1013.63 1013.93 1014.30 1014.45 1014.49 1014.53 1014.59 1014.79 1014.92 1015.08 1015.15 1015.09 1015.26
1012.42 1012.45 1012.48 1012.70 1012.84 1012.54 1012.47 1012.51 1012.82 1013.07 1013.14 1013.49 1013.72 1013.81 1013.86 1013.92 1014.11 1014.33 1014.37 1014.36 1014.50 1014.87
1011.47 1011.59 1012.06 1012.28 1012.69 1012.19 1012.11 1012.13 1012.52 1012.36 1012.44 1012.54 1012.65 1013.01 1013.16 1013.21 1013.44 1013.66 1013.77 1013.77 1013.82 1014.20
1011.39 1011.77 1012.04 1011.21 1011.81 1011.58 1011.67 1011.85 1011.66 1011.63 1011.93 1012.12 1011.99 1012.18 1012.35 1012.65 1013.04 1013.20 1013.21 1013.24 1013.20 1013.51
1011.69 1012.02 1012.09 1011.99 1011.84 1011.59 1011.33 1011.62 1011.60 1011.51 1011.40 1011.58 1011.73 1011.86 1011.74 1012.09 1012.33 1012.52 1012.65 1012.69 1012.86 1013.14
1011.90 1012.14 1012.03 1011.90 1011.79 1011.70 1011.51 1010.87 1011.30 1011.68 1011.57 1011.69 1011.89 1011.62 1011.59 1011.91 1011.88 1011.78 1011.97 1012.24 1012.66 1012.76
Thickness
5753 5751 5752 5761 5764 5766 5767 5772 5776 5777 5777 5779 5778 5777 5778 5780 5781 5783 5782 5782 5779 5779
5756 5755 5753 5757 5763 5766 5769 5773 5773 5775 5774 5776 5777 5777 5775 5775 5780 5783 5782 5780 5781 5780
5758 5759 5761 5761 5760 5763 5763 5767 5768 5773 5776 5777 5775 5775 5774 5774 5779 5780 5781 5780 5779 5778
5752 5756 5757 5760 5764 5764 5762 5762 5765 5771 5772 5773 5774 5775 5773 5774 5777 5778 5779 5781 5779 5778
5756 5759 5762 5760 5762 5763 5761 5762 5765 5766 5768 5769 5771 5773 5771 5773 5777 5774 5774 5777 5777 5777
5754 5762 5763 5769 5770 5764 5763 5763 5766 5764 5767 5769 5769 5768 5770 5774 5775 5775 5774 5775 5774 5775
5752 5763 5762 5769 5776 5773 5769 5766 5764 5766 5767 5767 5768 5770 5770 5771 5773 5776 5775 5776 5776 5776
5750 5761 5765 5764 5770 5772 5767 5765 5766 5764 5765 5768 5769 5771 5772 5772 5771 5772 5772 5774 5776 5777
5743 5748 5758 5762 5765 5769 5771 5769 5769 5771 5769 5767 5769 5772 5772 5774 5773 5773 5773 5773 5775 5774
5744 5747 5751 5755 5758 5764 5768 5770 5767 5769 5771 5768 5768 5770 5772 5774 5774 5773 5773 5775 5775 5772
5748 5749 5748 5749 5750 5759 5765 5765 5763 5764 5770 5770 5772 5770 5771 5773 5773 5771 5772 5774 5774 5772
5746 5745 5743 5746 5748 5755 5758 5757 5762 5763 5764 5766 5771 5768 5770 5770 5768 5768 5768 5771 5773 5771
5741 5739 5738 5740 5743 5748 5753 5750 5751 5753 5760 5764 5764 5763 5766 5764 5764 5762 5763 5765 5765 5764
5732 5731 5734 5737 5739 5741 5744 5751 5747 5745 5750 5749 5751 5757 5761 5758 5761 5763 5762 5760 5757 5758